CAPE
3122 2831 2448 2223 1685 1526 1474 1299 1329 1468 1385 1313 1333 1348 1143 1064 1249 1053 1073 1069 708 712
2513 2380 2072 1741 1674 1609 1510 1547 1250 1165 1241 849 1105 1207 1172 1113 820 869 707 1250 1000 582
1878 2058 1904 1926 1690 1715 1424 1214 996 789 748 600 393 1094 1307 914 735 774 458 461 506 372
1795 1400 1260 1381 998 1084 874 222 194 585 348 155 312 696 584 760 487 562 352 257 159 260
934 927 894 826 741 643 810 618 516 436 34 14 85 209 386 257 387 264 202 121 44 16
353 183 98 182 362 227 209 143 429 277 56 124 68 197 152 76 94 174 59 49 32 10
536 549 735 819 811 886 838 813 713 371 149 41 63 0 0 0 0 50 118 144 146 109
723 971 829 694 680 729 541 411 298 96 51 45 0 6 8 8 0 1 70 118 209 185
704 451 311 307 243 153 190 240 361 288 503 389 39 0 0 0 0 2 2 15 30 72
313 104 4 1 0 0 5 16 15 15 5 8 0 0 0 0 0 0 0 0 0 0
46 0 1 0 0 0 0 0 0 0 0 0 0 0 0 0 0 0 0 0 0 0
0 0 0 0 0 0 0 0 0 0 0 0 0 0 0 0 0 0 0 0 0 0
0 0 0 0 0 0 0 0 0 0 0 0 0 0 0 0 0 0 0 0 0 0
0 0 0 0 0 0 0 0 0 0 0 0 0 0 0 0 0 0 0 0 0 0
CIN
-3 -2 -5 -9 -16 -9 -15 -19 -12 -27 -16 -23 -14 -7 -3 -6 -4 -12 -14 -14 -22 -22
-4 -5 -5 -1 -10 -9 -11 -14 -12 -9 -18 -8 -3 -7 -9 -7 -14 -13 -23 -9 -11 -21
-56 -38 -38 -12 -6 -9 -9 -12 -32 -24 -32 -39 -15 -5 -10 -9 -6 -8 -15 -12 -21 -18
-24 -54 -44 -23 -46 -50 -51 -108 -29 -23 -70 -63 -18 -2 -5 -8 -12 -8 -9 -28 -33 -24
-69 -55 -43 -34 -34 -45 -15 -16 -7 -19 -80 -176 -56 -11 -15 -15 -10 -9 -7 -25 -78 -109
-172 -237 -280 -221 -108 -107 -101 -91 -6 -22 -80 -92 -62 -4 -20 -45 -29 -20 -30 -39 -65 -112
-108 -83 -37 -36 -33 -10 -10 -5 0 -6 -18 -23 -34 0 0 0 0 -24 -12 -6 -24 -20
-57 -21 -28 -47 -45 -38 -48 -41 -31 -59 -45 -43 0 -59 -56 -42 0 -32 -44 -9 -11 -6
-40 -64 -74 -71 -80 -101 -66 -50 -24 -25 -4 -6 -24 0 0 0 0 -13 -24 -68 -52 -20
-103 -157 -99 -50 0 0 -98 -86 -47 -36 -45 -41 0 0 0 0 0 0 0 0 0 0
-226 0 -1 -1 0 0 0 0 0 0 0 0 0 0 0 0 0 0 0 0 0 0
-1 0 0 0 0 0 0 0 0 0 0 0 0 0 0 0 0 0 0 0 0 0
0 0 0 0 0 0 0 0 0 0 0 0 0 0 0 0 0 0 0 0 0 0
0 0 0 0 0 0 0 0 0 0 0 0 0 0 0 0 0 0 0 0 0 0
Wind_Speed
2 3 4 3 2 7 7 10 16 10 10 7 7 5 7 8 9 9 10 9 9 10
5 6 8 6 7 5 8 14 15 17 18 18 12 8 5 6 7 8 9 8 11 13
18 17 17 15 15 14 12 19 21 23 18 20 21 11 4 7 7 9 12 14 14 19
19 20 18 16 16 15 11 17 21 20 23 25 33 19 16 13 12 12 15 19 21 21
17 17 17 16 15 17 18 16 15 15 20 18 37 33 23 21 20 23 20 21 22 23
18 19 20 21 20 18 17 14 14 15 12 15 21 26 22 24 25 24 24 25 27 27
18 18 19 21 22 21 22 21 19 20 19 14 11 16 18 21 20 24 28 27 24 27
17 18 20 21 22 23 22 21 21 20 19 18 19 21 22 19 11 12 27 31 31 34
19 20 21 22 23 23 22 22 22 23 24 24 22 21 24 25 27 28 29 35 36 38
19 20 21 22 22 23 24 24 25 26 27 27 24 25 27 30 31 33 34 36 37 39
20 20 21 22 23 24 25 25 26 27 28 29 28 28 31 33 33 34 35 36 38 38
20 21 22 23 24 25 26 26 27 27 28 28 27 28 27 29 31 33 34 34 35 37
21 22 23 25 25 26 25 26 26 27 27 28 27 25 23 25 30 33 34 36 38 39
22 23 22 24 24 25 25 25 24 24 25 26 25 23 23 24 28 32 35 36 37 37
Wind_Direction
58 61 34 17 17 353 343 333 321 332 337 335 338 19 40 37 37 54 42 51 47 31
350 349 351 357 359 339 335 329 326 313 313 311 304 312 1 36 41 31 25 25 6 1
335 339 343 349 348 345 339 324 321 313 322 311 290 168 354 352 3 353 345 353 350 331
335 336 342 345 347 349 353 335 319 319 318 303 284 314 328 341 339 335 325 327 324 326
354 355 0 2 359 353 356 8 350 336 317 302 293 292 311 317 319 315 317 317 318 318
7 8 7 5 5 6 4 358 350 358 3 331 308 298 315 316 316 313 313 312 309 308
10 13 7 6 6 5 4 7 9 4 1 8 3 331 329 325 329 321 310 312 316 306
20 14 7 3 1 2 3 4 5 7 3 356 342 337 338 333 336 339 312 302 295 296
5 1 360 359 357 357 357 356 353 350 345 339 337 336 333 326 319 317 314 302 301 300
3 359 356 355 355 351 349 346 341 338 332 328 333 328 326 322 319 314 309 306 306 304
354 353 352 350 348 346 344 341 339 334 330 327 326 326 323 320 319 315 314 311 309 308
352 350 349 346 344 342 339 337 336 334 333 331 331 330 331 330 326 321 319 318 316 313
349 346 344 342 340 340 339 338 337 337 337 334 333 335 338 335 329 324 321 318 315 312
346 342 344 342 342 341 339 339 339 339 339 337 336 337 336 335 332 327 323 321 320 318